Location: Unspecified
(52.4292°N, 19.3359°E)
Time: 14:54:20
(UTC+01:00)

A-11 Canister half - Pass Details

Date: 18 October 2025
Orbit: 1526 x 1682 km, 47.3° (Epoch: 13 November)

Event Time Altitude Azimuth Distance (km) Brightness Sun altitude
Exits shadow 06:14:46 11° 267° (W) 3,615 10.3 -9.7°
Maximum altitude 06:23:36 62° 190° (S) 1,689 9.2 -8.3°
Drops below altitude 10° 06:32:47 10° 113° (ESE) 3,728 12.5 -6.9°
Sets 06:35:54 0° 110° (ESE) 4,727 13.6 -6.5°
